User: anonymous   Login
Location: Innsbruck
(47.2657°N, 11.3914°E)
Time: 16:32:15
(UTC+01:00)
Language:

CAS-4A - Orbit

View from above orbital plane
View from above orbital plane
View from above satellite
View from above satellite

Ground track
Ground track

The orbit data is extracted from the following two-line orbital elements,

1 42761U 17034D   21331.16361817  .00001086  00000-0  77715-4 0  9994
2 42761  43.0197   5.2926 0007006 101.6441   2.0416 15.10654872245755
Epoch (UTC): 27 November 2021 03:55:36
Eccentricity: 0.0007006
inclination: 43.0197°
perigee height: 529 km
apogee height: 539 km
right ascension of ascending node: 5.2926°
argument of perigee: 101.6441°
revolutions per day: 15.10654872
mean anomaly at epoch: 2.0416°
orbit number at epoch: 24575

The dashed part of the orbit path shows where the satellite is in the earth's shadow,  

DLR